Volver al catálogo

STARLINK-32113

ActivoComunicacionesVLEO
NORAD 60282·PAYLOAD·🇺🇸 United States

Lanzado Jul 28, 2024 desde Cape Canaveral Space Force Station

Loading…

Próximos Pases (próximas 24 horas)

TLE

ActualizadoSource: CelesTrak SupGP

Época: Sep 14, 2026, 21:10 UTC

1 60282C 24132E   26257.88243056 -.00016138  00000+0 -47754-3 0  2575
2 60282  53.1560 251.7430 0001489  87.6577 269.6394 15.34349301    17

Sigue STARLINK-32113 en tiempo real con AllMySat

Download on the App Store